When you browse on this site, cookies collect data to enhance your experience and personalize the content and advertising you see.
Visit our Privacy Policy to learn more. By continuing to use the site, you agree to this use of cookies and data.
  • In Lithuania
  • List of Countries
  • For 7 days
  • Water Temperature
  • Satellite Maps
  • Weather Map
  • Weather Widgets
  • user-avatar
    Login

    Hourly Weather Kudashevo

    Today, 16 June, Sunday

    Time Temperature Precipitation Wind Pressure Humidity
    00:00 +16°C° 0 mm 2 mps 744 mmHg 83%
    01:00 +15°C° 0 mm 1 mps 744 mmHg 86%
    02:00 +14°C° 0 mm 1 mps 744 mmHg 88%
    03:00 +12°C° 0 mm 0 mps 744 mmHg 91%
    04:00 +14°C° 0 mm 1 mps 744 mmHg 90%
    05:00 +14°C° 0 mm 1 mps 744 mmHg 90%
    06:00 +15°C° 0 mm 1 mps 744 mmHg 90%
    07:00 +16°C° 0 mm 1 mps 744 mmHg 86%
    08:00 +19°C° 0 mm 1 mps 744 mmHg 81%
    09:00 +18°C° 0 mm 0 mps 744 mmHg 77%
    10:00 +20°C° 0.5 mm 1 mps 744 mmHg 78%
    11:00 +20°C° 0.5 mm 1 mps 744 mmHg 78%
    12:00 +20°C° 0.5 mm 2 mps 744 mmHg 78%
    13:00 +21°C° 0.2 mm 2 mps 744 mmHg 75%
    14:00 +21°C° 0.2 mm 2 mps 744 mmHg 72%
    15:00 +22°C° 0.2 mm 3 mps 744 mmHg 69%
    16:00 +22°C° 0.1 mm 3 mps 744 mmHg 70%
    17:00 +23°C° 0.1 mm 2 mps 744 mmHg 72%
    18:00 +23°C° 0.1 mm 2 mps 744 mmHg 73%
    19:00 +20°C° 0 mm 2 mps 744 mmHg 78%
    20:00 +19°C° 0 mm 2 mps 744 mmHg 83%
    21:00 +18°C° 0 mm 1 mps 745 mmHg 88%
    22:00 +18°C° 0 mm 1 mps 745 mmHg 89%
    23:00 +16°C° 0 mm 1 mps 745 mmHg 89%

    Tomorrow, 17 June, Monday

    Time Temperature Precipitation Wind Pressure Humidity
    00:00 +15°C° 0 mm 1 mps 745 mmHg 89%
    01:00 +15°C° 0 mm 1 mps 745 mmHg 89%
    02:00 +15°C° 0 mm 1 mps 745 mmHg 90%
    03:00 +14°C° 0 mm 1 mps 745 mmHg 90%
    04:00 +14°C° 0 mm 0 mps 745 mmHg 88%
    05:00 +15°C° 0 mm 0 mps 745 mmHg 87%
    06:00 +16°C° 0 mm 0 mps 745 mmHg 86%
    07:00 +17°C° 0 mm 0 mps 745 mmHg 82%
    08:00 +20°C° 0 mm 1 mps 745 mmHg 77%
    09:00 +22°C° 0 mm 1 mps 746 mmHg 73%
    10:00 +23°C° 0.1 mm 1 mps 746 mmHg 69%
    11:00 +23°C° 0.1 mm 2 mps 746 mmHg 66%
    12:00 +24°C° 0.1 mm 2 mps 745 mmHg 62%
    13:00 +24°C° 0.1 mm 2 mps 745 mmHg 62%
    14:00 +25°C° 0.1 mm 3 mps 745 mmHg 63%
    15:00 +25°C° 0.1 mm 3 mps 745 mmHg 63%
    16:00 +24°C° 0.1 mm 3 mps 745 mmHg 67%
    17:00 +24°C° 0.1 mm 3 mps 744 mmHg 71%
    18:00 +22°C° 0.1 mm 3 mps 744 mmHg 75%
    19:00 +21°C° 0 mm 3 mps 744 mmHg 78%
    20:00 +19°C° 0 mm 2 mps 744 mmHg 81%
    21:00 +19°C° 0 mm 1 mps 744 mmHg 84%
    22:00 +19°C° 0 mm 1 mps 744 mmHg 82%
    23:00 +19°C° 0 mm 1 mps 745 mmHg 81%

    Day after tomorrow, 18 June, Tuesday

    Time Temperature Precipitation Wind Pressure Humidity
    00:00 +19°C° 0 mm 1 mps 745 mmHg 79%
    01:00 +19°C° 0 mm 1 mps 745 mmHg 78%
    02:00 +19°C° 0 mm 1 mps 744 mmHg 78%
    03:00 +19°C° 0 mm 1 mps 744 mmHg 78%
    04:00 +19°C° 0 mm 1 mps 744 mmHg 79%
    05:00 +20°C° 0 mm 1 mps 744 mmHg 80%
    06:00 +20°C° 0 mm 1 mps 744 mmHg 81%
    07:00 +21°C° 0.1 mm 1 mps 745 mmHg 81%
    08:00 +20°C° 0.1 mm 2 mps 745 mmHg 80%
    09:00 +21°C° 0.1 mm 2 mps 745 mmHg 79%
    10:00 +21°C° 0.1 mm 2 mps 745 mmHg 79%
    11:00 +21°C° 0.1 mm 2 mps 745 mmHg 78%
    12:00 +23°C° 0.1 mm 2 mps 745 mmHg 78%
    13:00 +22°C° 0.2 mm 3 mps 744 mmHg 75%
    14:00 +24°C° 0.2 mm 3 mps 744 mmHg 73%
    15:00 +25°C° 0.2 mm 3 mps 744 mmHg 71%
    16:00 +25°C° 0.2 mm 3 mps 744 mmHg 71%
    17:00 +25°C° 0.2 mm 3 mps 744 mmHg 72%
    18:00 +25°C° 0.2 mm 2 mps 744 mmHg 73%
    19:00 +23°C° 0 mm 2 mps 744 mmHg 76%
    20:00 +21°C° 0 mm 1 mps 744 mmHg 80%
    21:00 +20°C° 0 mm 1 mps 744 mmHg 83%
    22:00 +19°C° 0 mm 1 mps 745 mmHg 82%
    23:00 +19°C° 0 mm 1 mps 745 mmHg 82%

    19 June, Wednesday

    Time Temperature Precipitation Wind Pressure Humidity
    00:00 +17°C° 0 mm 2 mps 745 mmHg 81%
    01:00 +17°C° 0 mm 2 mps 745 mmHg 82%
    02:00 +16°C° 0 mm 2 mps 745 mmHg 83%
    03:00 +16°C° 0 mm 2 mps 745 mmHg 85%
    04:00 +17°C° 0 mm 2 mps 746 mmHg 85%
    05:00 +17°C° 0 mm 2 mps 746 mmHg 86%
    06:00 +18°C° 0 mm 2 mps 746 mmHg 86%
    07:00 +19°C° 0 mm 2 mps 746 mmHg 82%
    08:00 +20°C° 0 mm 3 mps 747 mmHg 78%
    09:00 +22°C° 0 mm 3 mps 747 mmHg 73%
    10:00 +24°C° 0 mm 3 mps 747 mmHg 67%
    11:00 +24°C° 0 mm 3 mps 747 mmHg 62%
    12:00 +25°C° 0 mm 3 mps 747 mmHg 56%
    13:00 +26°C° 0 mm 3 mps 747 mmHg 57%
    14:00 +26°C° 0 mm 3 mps 747 mmHg 58%
    15:00 +26°C° 0 mm 3 mps 747 mmHg 59%
    16:00 +26°C° 0 mm 3 mps 747 mmHg 63%
    17:00 +26°C° 0 mm 3 mps 747 mmHg 66%
    18:00 +25°C° 0 mm 2 mps 747 mmHg 70%
    19:00 +24°C° 0 mm 2 mps 747 mmHg 72%
    20:00 +21°C° 0 mm 2 mps 747 mmHg 74%
    21:00 +20°C° 0 mm 1 mps 747 mmHg 75%
    22:00 +20°C° 0 mm 1 mps 747 mmHg 75%
    23:00 +19°C° 0 mm 1 mps 747 mmHg 75%

    20 June, Thursday

    Time Temperature Precipitation Wind Pressure Humidity
    00:00 +18°C° 0 mm 1 mps 748 mmHg 75%
    01:00 +18°C° 0 mm 1 mps 748 mmHg 77%
    02:00 +18°C° 0 mm 1 mps 748 mmHg 78%
    03:00 +16°C° 0 mm 1 mps 748 mmHg 80%
    04:00 +18°C° 0 mm 1 mps 748 mmHg 80%
    05:00 +19°C° 0 mm 1 mps 748 mmHg 81%
    06:00 +19°C° 0 mm 1 mps 748 mmHg 82%
    07:00 +21°C° 0 mm 1 mps 748 mmHg 76%
    08:00 +22°C° 0 mm 1 mps 749 mmHg 71%
    09:00 +24°C° 0 mm 1 mps 749 mmHg 66%
    10:00 +25°C° 0 mm 1 mps 749 mmHg 61%
    11:00 +26°C° 0 mm 1 mps 749 mmHg 57%
    12:00 +27°C° 0 mm 1 mps 749 mmHg 52%
    13:00 +27°C° 0 mm 1 mps 749 mmHg 51%
    14:00 +27°C° 0 mm 1 mps 748 mmHg 50%
    15:00 +28°C° 0 mm 1 mps 748 mmHg 48%
    16:00 +28°C° 0 mm 1 mps 748 mmHg 52%
    17:00 +27°C° 0 mm 1 mps 748 mmHg 56%
    18:00 +27°C° 0 mm 1 mps 748 mmHg 59%
    19:00 +25°C° 0 mm 1 mps 748 mmHg 61%
    20:00 +23°C° 0 mm 1 mps 748 mmHg 62%
    21:00 +21°C° 0 mm 1 mps 748 mmHg 64%
    22:00 +21°C° 0 mm 1 mps 748 mmHg 67%
    23:00 +20°C° 0 mm 1 mps 748 mmHg 69%

    21 June, Friday

    Time Temperature Precipitation Wind Pressure Humidity
    00:00 +19°C° 0 mm 1 mps 749 mmHg 72%
    01:00 +19°C° 0 mm 1 mps 749 mmHg 74%
    02:00 +19°C° 0 mm 1 mps 749 mmHg 76%
    03:00 +18°C° 0 mm 1 mps 749 mmHg 78%
    04:00 +19°C° 0 mm 1 mps 749 mmHg 79%
    05:00 +20°C° 0 mm 1 mps 749 mmHg 80%
    06:00 +20°C° 0 mm 1 mps 749 mmHg 80%
    07:00 +22°C° 0 mm 1 mps 749 mmHg 76%
    08:00 +23°C° 0 mm 1 mps 749 mmHg 72%
    09:00 +25°C° 0 mm 2 mps 749 mmHg 68%
    10:00 +26°C° 0 mm 2 mps 749 mmHg 63%
    11:00 +27°C° 0 mm 3 mps 749 mmHg 59%
    12:00 +27°C° 0 mm 3 mps 749 mmHg 55%
    13:00 +28°C° 0 mm 3 mps 749 mmHg 56%
    14:00 +28°C° 0 mm 3 mps 748 mmHg 56%
    15:00 +28°C° 0 mm 4 mps 748 mmHg 57%
    16:00 +28°C° 0 mm 3 mps 748 mmHg 61%
    17:00 +27°C° 0 mm 3 mps 748 mmHg 65%
    18:00 +27°C° 0 mm 2 mps 747 mmHg 70%
    19:00 +25°C° 0 mm 2 mps 748 mmHg 73%
    20:00 +24°C° 0 mm 2 mps 748 mmHg 76%
    21:00 +21°C° 0 mm 2 mps 748 mmHg 79%
    22:00 +20°C° 0 mm 2 mps 748 mmHg 81%
    23:00 +20°C° 0 mm 2 mps 748 mmHg 83%
    Show more